[[{"header":{"parameterUnit":"m.s-1","parameterCategory":1,"la1":30.2991,"la2":30.254,"lo1":-89.0895,"lo2":-89.0444,"dy":0.0017,"dx":0.0017,"nx":28,"ny":28,"refTime":"2026-02-13T03:00:00:Z","depth":0,"parameterNumber":2,"parameterNumberName":"U-component_of_WINDS"},"data":[0,0,0,0,0,0,0,0,0,0,0,0,0,0,0,0,0,0,0,0,0,0,0,0,0,0,0,0,0,0,0,0,0,0,0,0,0,0,0,0,0,0,0,0,0,0,0,0,0,0,0,0,0,0,0,0,0,0,-5.634,-5.6341,0,-5.6411,-5.6412,-5.6413,-5.6356,-5.6353,-5.6351,-5.6349,-5.6419,-5.6423,-5.6427,0,0,0,0,0,0,0,0,0,0,0,0,0,-5.6157,-5.616,-5.634,-5.6341,-5.6342,-5.6411,-5.6412,-5.6413,-5.6356,-5.6353,-5.635,-5.6348,-5.6418,-5.6423,-5.6428,0,0,0,0,0,0,0,0,0,0,0,0,0,-5.6233,-5.6161,-5.634,-5.6322,-5.6321,-5.6411,-5.6412,-5.6413,-5.6357,-5.6353,-5.635,-5.6346,-5.6416,-5.6422,-5.6428,-5.6539,0,0,-5.6447,-5.645,0,0,0,0,0,0,0,0,-5.6228,-5.624,-5.6324,-5.6324,-5.6323,-5.6371,-5.6373,-5.6455,-5.6358,-5.6343,-5.6349,-5.6344,-5.6406,-5.6413,-5.6434,-5.6542,-5.6545,-5.6448,-5.6452,-5.6454,-5.6456,0,0,0,0,0,0,0,-5.6223,-5.6236,-5.6368,-5.6325,-5.6325,-5.6311,-5.6318,-5.6388,-5.6394,-5.6344,-5.634,-5.635,-5.6405,-5.6428,-5.6435,-5.6546,-5.6448,-5.6453,-5.6457,-5.6459,-5.6749,-5.6753,0,0,0,0,0,0,-5.622,-5.6232,-5.6366,-5.637,-5.6266,-5.6317,-5.6325,-5.6359,-5.6393,-5.6395,-5.6353,-5.6347,-5.6419,-5.6428,-5.6437,-5.6568,-5.6454,-5.646,-5.6464,-5.6746,-5.675,-5.6755,0,0,0,0,0,0,-5.6216,-5.6232,-5.6363,-5.63,-5.6316,-5.6324,-5.6363,-5.6362,-5.6385,-5.6399,-5.64,-5.6375,-5.6417,-5.6429,-5.6514,-5.657,-5.6463,-5.6468,-5.6741,-5.6747,-5.6753,-5.6831,0,0,0,0,0,0,-5.6211,-5.6231,-5.6273,-5.6302,-5.6319,-5.6439,-5.6367,-5.6366,-5.6396,-5.6389,-5.6421,-5.6422,-5.6415,-5.6505,-5.6521,-5.6576,-5.6473,-5.6736,-5.6744,-5.6751,-5.6824,-5.6839,-5.6852,0,0,0,0,0,-5.6205,-5.6292,-5.6275,-5.6292,-5.6372,-5.6442,-5.6452,-5.6442,-5.6401,-5.6443,-5.6453,-5.6421,-5.6563,-5.6515,-5.6531,-5.659,-5.6732,-5.6741,-5.675,-5.6817,-5.6836,-5.6852,0,0,0,0,0,0,-5.6268,-5.6295,-5.6277,-5.6376,-5.6407,-5.6432,-5.6484,-5.6463,-5.6506,-5.6497,-5.6483,-5.6491,-5.6581,-5.6594,-5.6541,-5.6699,-5.6641,-5.6653,-5.6686,-5.6704,-5.6718,-5.6711,-5.6478,0,0,0,0,0,-5.6294,-5.6349,-5.637,-5.6455,-5.6472,-5.6476,-5.6506,-5.6496,-5.6528,-5.654,-5.6556,-5.6588,-5.6639,-5.6673,-5.6721,-5.6827,-5.6832,-5.6876,-5.689,-5.6902,-5.6912,-5.6969,-5.6988,-5.6784,-5.6784,-5.6784,0,0,-5.6346,-5.6368,-5.6403,-5.6468,-5.6491,-5.6548,-5.6487,-5.655,-5.6592,-5.655,-5.6631,-5.6645,-5.6679,-5.6775,-5.6818,-5.6789,-5.697,-5.6914,-5.6923,-5.6926,-5.698,-5.6999,-5.7016,-5.679,-5.6789,-5.6788,0,0,-5.6471,-5.6494,-5.6567,-5.6593,-5.6629,-5.6632,-5.665,-5.668,-5.6687,-5.6769,-5.6739,-5.6789,-5.6878,-5.6904,-5.6929,-5.7068,-5.7041,-5.7085,-5.7158,-5.7214,-5.723,-5.7244,-5.7292,-5.731,-5.7096,-5.7096,-5.7096,0,-5.6531,-5.6616,-5.6607,-5.6673,-5.6702,-5.667,-5.6744,-5.6769,-5.6819,-5.684,-5.6808,-5.692,-5.6941,-5.7042,-5.7077,-5.7099,-5.7118,-5.7079,-5.7229,-5.7243,-5.7256,-5.7301,-5.732,-5.7101,-5.71,-5.71,-5.7099,0,-5.6688,-5.6748,-5.6803,-5.6854,-5.689,-5.696,-5.6962,-5.7,-5.6988,-5.6995,-5.708,-5.7105,-5.7157,-5.7182,-5.717,-5.7283,-5.7263,-5.7231,-5.7171,-5.728,-5.7323,-5.734,-5.7108,-5.7106,-5.7104,-5.7103,0,0,-5.6849,-5.6897,-5.6917,-5.694,-5.698,-5.7026,-5.7096,-5.7148,-5.7181,-5.7218,-5.7275,-5.7353,-5.7324,-5.7352,-5.7344,-5.7394,-5.7502,-5.7355,-5.7356,-5.7379,-5.7625,-5.7647,-5.7668,-5.7486,-5.7489,-5.7492,-5.7622,0,-5.6974,-5.7094,-5.709,-5.7202,-5.7257,-5.7229,-5.7289,-5.7321,-5.733,-5.7378,-5.7389,-5.7444,-5.7402,-5.7418,-5.7467,-5.7478,-5.755,-5.7469,-5.7537,-5.7539,-5.7525,-5.769,-5.7713,-5.7834,-5.7639,-5.7641,-5.7643,0,-5.7134,-5.7178,-5.7296,-5.7329,-5.7352,-5.7406,-5.7455,-5.7503,-5.7538,-5.7542,-5.7576,-5.7561,-5.7631,-5.7574,-5.767,-5.7615,-5.7644,-5.7654,-5.7659,-5.7661,-5.7595,-5.7695,-5.7873,-5.789,-5.767,-5.7668,-5.7666,0,-5.7237,-5.7326,-5.7408,-5.7429,-5.7471,-5.7509,-5.7529,-5.7561,-5.7594,-5.7637,-5.7658,-5.771,-5.7737,-5.7777,-5.7777,-5.7735,-5.7874,-5.7816,-5.7878,-5.7878,-5.7904,-5.7902,-5.8087,-5.7929,-5.7929,-5.7928,-5.7928,0,-5.7375,-5.7447,-5.7455,-5.7505,-5.7586,-5.7582,-5.7662,-5.7678,-5.7708,-5.776,-5.7741,-5.779,-5.7788,-5.7839,-5.784,-5.792,-5.7933,-5.7937,-5.7935,-5.7937,-5.7936,-5.7952,-5.7942,-5.7933,-5.7932,-5.7931,-5.793,0,-5.7501,-5.7509,-5.7596,-5.763,-5.7641,-5.7699,-5.7727,-5.7775,-5.7785,-5.7852,-5.7867,-5.7882,-5.7941,-5.7946,-5.8014,-5.8015,-5.811,-5.8102,-5.8098,-5.8095,-5.8155,-5.8149,-5.8354,-5.838,-5.8208,-5.821,-5.8212,0,-5.7586,-5.7641,-5.7682,-5.7716,-5.7738,-5.7793,-5.7827,-5.7827,-5.7863,-5.791,-5.7952,-5.801,-5.8055,-5.8152,-5.8168,-5.8221,-5.8211,-5.828,-5.8218,-5.8218,-5.8209,-5.8204,-5.8209,-5.829,-5.8292,-5.8293,-5.8294,0,-5.7735,-5.7738,-5.7787,-5.784,-5.7881,-5.7922,-5.7961,-5.799,-5.7995,-5.8037,-5.8098,-5.8133,-5.8205,-5.8262,-5.8314,-5.8334,-5.8315,-5.8315,-5.8331,-5.833,-5.8325,-5.8326,-5.8127,-5.8308,-5.8307,-5.8306,-5.8305,-5.8305,-5.7841,-5.7889,-5.7926,-5.7983,-5.8012,-5.805,-5.8096,-5.8113,-5.8164,-5.8222,-5.822,-5.8287,-5.8323,-5.8392,-5.8416,-5.8469,-5.8445,-5.847,-5.8475,-5.848,-5.8485,-5.8321,-5.8479,-5.8478,-5.8478,-5.8478,-5.8477,0,-5.7987,-5.8011,-5.8063,-5.8118,-5.8163,-5.8145,-5.8188,-5.8226,-5.8285,-5.8322,-5.8368,-5.8439,-5.8495,-5.8518,-5.8573,-5.8611,-5.8604,-5.8625,-5.862,-5.8625,-5.8504,-5.8483,-5.863,-5.863,-5.863,-5.863,-5.863,-5.863,-5.8068,-5.8148,-5.8156,-5.8251,-5.8274,-5.834,-5.8366,-5.84,-5.8429,-5.8509,-5.8556,-5.8572,-5.8603,-5.8661,-5.8712,-5.8717,-5.8737,-5.8762,-5.8763,-5.8649,-5.8633,-5.8618,-5.8598,-5.8767,-5.8767,-5.8879,-5.888,-5.8881]},{"header":{"parameterUnit":"m.s-1","parameterCategory":1,"la1":30.2991,"la2":30.254,"lo1":-89.0895,"lo2":-89.0444,"dy":0.0017,"dx":0.0017,"nx":28,"ny":28,"refTime":"2026-02-13T03:00:00:Z","depth":0,"parameterNumber":3,"parameterNumberName":"V-component_of_WINDS"},"data":[0,0,0,0,0,0,0,0,0,0,0,0,0,0,0,0,0,0,0,0,0,0,0,0,0,0,0,0,0,0,0,0,0,0,0,0,0,0,0,0,0,0,0,0,0,0,0,0,0,0,0,0,0,0,0,0,0,0,2.5867,2.5868,0,2.5997,2.5998,2.6,2.605,2.605,2.605,2.6049,2.6182,2.6186,2.619,0,0,0,0,0,0,0,0,0,0,0,0,0,2.5666,2.567,2.5867,2.5868,2.587,2.5997,2.5998,2.6,2.605,2.605,2.6049,2.6049,2.6181,2.6186,2.619,0,0,0,0,0,0,0,0,0,0,0,0,0,2.577,2.5671,2.5867,2.591,2.5916,2.5996,2.5998,2.6001,2.605,2.605,2.6049,2.6049,2.6179,2.6185,2.6191,2.6237,0,0,2.6209,2.6211,0,0,0,0,0,0,0,0,2.5764,2.5778,2.5902,2.5908,2.5914,2.6007,2.5977,2.608,2.6051,2.5999,2.6049,2.6049,2.6124,2.6135,2.616,2.6244,2.6249,2.6209,2.6213,2.6215,2.6217,0,0,0,0,0,0,0,2.5757,2.5772,2.5918,2.5904,2.5911,2.5925,2.5939,2.5996,2.6063,2.6004,2.6008,2.6022,2.6127,2.6154,2.6164,2.6251,2.6209,2.6214,2.6218,2.622,2.6385,2.6386,0,0,0,0,0,0,2.5742,2.5766,2.5914,2.5922,2.5836,2.5929,2.5945,2.5977,2.6063,2.6075,2.6023,2.6024,2.6145,2.6157,2.6169,2.6232,2.6215,2.6221,2.6224,2.6385,2.6386,2.6387,0,0,0,0,0,0,2.5738,2.5755,2.5909,2.5845,2.5866,2.5933,2.5969,2.598,2.6007,2.6077,2.6089,2.6038,2.6145,2.616,2.6221,2.6237,2.6223,2.6228,2.6383,2.6385,2.6386,2.6358,0,0,0,0,0,0,2.5732,2.5753,2.577,2.5845,2.5869,2.5958,2.597,2.5983,2.6017,2.6021,2.6095,2.6106,2.6146,2.6212,2.6227,2.6245,2.6233,2.6382,2.6384,2.6386,2.6357,2.6358,2.6358,0,0,0,0,0,2.5724,2.5756,2.5771,2.5788,2.5892,2.5959,2.5973,2.6017,2.6018,2.6037,2.6083,2.6104,2.6233,2.6218,2.6235,2.6255,2.6382,2.6384,2.6386,2.6357,2.6358,2.6358,0,0,0,0,0,0,2.568,2.5766,2.5784,2.584,2.5892,2.5967,2.5992,2.6015,2.6068,2.6068,2.6122,2.6138,2.6195,2.6231,2.6213,2.6308,2.6309,2.6315,2.6282,2.6283,2.6283,2.6274,2.6238,0,0,0,0,0,2.5676,2.5723,2.5796,2.5839,2.5864,2.5924,2.5954,2.5985,2.604,2.6062,2.6112,2.6166,2.622,2.6253,2.6305,2.6363,2.6382,2.6386,2.6386,2.6386,2.639,2.6428,2.6432,2.6393,2.6393,2.6393,0,0,2.567,2.5723,2.5749,2.5832,2.5875,2.5924,2.5942,2.5991,2.6028,2.607,2.6131,2.617,2.6234,2.6295,2.6324,2.6326,2.6406,2.6389,2.6388,2.6393,2.6431,2.6434,2.6437,2.6395,2.6394,2.6394,0,0,2.5683,2.5727,2.577,2.5814,2.5881,2.5921,2.5931,2.6004,2.6032,2.6095,2.6128,2.6174,2.6263,2.6309,2.6343,2.638,2.6403,2.6396,2.6398,2.6434,2.6437,2.644,2.6456,2.6461,2.64,2.64,2.64,0,2.5667,2.5741,2.5788,2.5838,2.5875,2.5916,2.5962,2.6002,2.6082,2.6108,2.611,2.6226,2.6272,2.6346,2.6355,2.6381,2.6397,2.6387,2.6432,2.6436,2.644,2.6456,2.6461,2.6398,2.6399,2.6399,2.6399,0,2.5719,2.577,2.5797,2.5875,2.5915,2.5961,2.6018,2.6054,2.6082,2.6122,2.6188,2.6245,2.6312,2.6332,2.6358,2.6411,2.6411,2.6422,2.6425,2.6441,2.6458,2.6464,2.6397,2.6397,2.6398,2.6398,0,0,2.5705,2.5812,2.5821,2.5859,2.5938,2.5979,2.603,2.6096,2.6127,2.6182,2.6228,2.6305,2.6317,2.6357,2.639,2.6421,2.6451,2.6429,2.6432,2.6433,2.6517,2.6509,2.6515,2.6467,2.6468,2.6469,2.6513,0,2.573,2.5822,2.5869,2.5941,2.5991,2.6034,2.6079,2.6133,2.6173,2.6223,2.6268,2.6323,2.6333,2.6358,2.6391,2.644,2.6469,2.6438,2.6512,2.6514,2.6496,2.6523,2.6514,2.6552,2.6519,2.652,2.6521,0,2.5771,2.5828,2.5905,2.5983,2.6006,2.6045,2.6112,2.6158,2.6223,2.625,2.6297,2.633,2.6388,2.6387,2.6469,2.6447,2.648,2.6509,2.6512,2.6521,2.6518,2.6535,2.6565,2.6571,2.653,2.653,2.6529,0,2.5756,2.5852,2.5912,2.5943,2.6034,2.6062,2.6101,2.6165,2.6203,2.6263,2.6289,2.6354,2.6389,2.644,2.6491,2.6485,2.6569,2.6571,2.6596,2.6595,2.6611,2.661,2.6649,2.663,2.663,2.663,2.663,0,2.578,2.5827,2.5908,2.5944,2.5999,2.6054,2.6107,2.615,2.6208,2.6255,2.6296,2.634,2.6405,2.6458,2.6498,2.6562,2.6577,2.6603,2.6613,2.66,2.6597,2.6623,2.6622,2.6632,2.6631,2.6631,2.6631,0,2.5772,2.5828,2.5897,2.5979,2.6001,2.6038,2.611,2.6149,2.6193,2.6253,2.6271,2.634,2.6405,2.6462,2.6547,2.6574,2.6641,2.6653,2.6619,2.6625,2.6648,2.6646,2.6706,2.6718,2.6689,2.6689,2.669,0,2.5784,2.5821,2.5909,2.5945,2.5984,2.604,2.608,2.6137,2.6178,2.6258,2.6288,2.6356,2.6414,2.6517,2.6576,2.6643,2.6657,2.6674,2.6667,2.6655,2.6661,2.6658,2.6664,2.6674,2.6674,2.6674,2.6674,0,2.5801,2.5828,2.5884,2.5953,2.6,2.6056,2.6114,2.6141,2.6209,2.6253,2.6321,2.6366,2.6456,2.6525,2.6599,2.6641,2.667,2.6676,2.6686,2.6673,2.6653,2.6667,2.6622,2.6674,2.6674,2.6674,2.6674,2.6674,2.5805,2.5842,2.591,2.5974,2.6024,2.6077,2.612,2.6171,2.6228,2.6306,2.6337,2.6407,2.6475,2.6578,2.6621,2.6679,2.6683,2.6696,2.67,2.6703,2.6702,2.6644,2.6692,2.6692,2.6692,2.6692,2.6692,0,2.5825,2.5873,2.5931,2.6011,2.6062,2.6086,2.6152,2.6194,2.6255,2.6316,2.6374,2.6454,2.6523,2.6589,2.6661,2.6694,2.671,2.6711,2.671,2.672,2.6692,2.6678,2.6698,2.6698,2.6698,2.6698,2.6698,2.6698,2.5842,2.5907,2.5943,2.6035,2.6083,2.6152,2.6189,2.624,2.629,2.6378,2.6436,2.6479,2.6543,2.6621,2.6686,2.6704,2.673,2.6729,2.675,2.6723,2.6722,2.672,2.6707,2.6733,2.6733,2.6774,2.6774,2.6774]}]]